Location: Home
(42.5358°N, 72.7383°W)
Time: 14:19:59
(UTC-05:00)

deb Explorer IX - Pass Details

Date: 09 December 2021
Orbit: 544 x 1082 km, 38.8° (Epoch: 16 January)

Event Time Altitude Azimuth Distance (km) Brightness Sun altitude
Rises 09:46:00 0° 260° (W) 3,254 ? 19.2°
Reaches altitude 10° 09:48:40 10° 257° (WSW) 2,233 ? 19.4°
Maximum altitude 09:53:42 55° 180° (S) 786 ? 19.9°
Drops below altitude 10° 09:58:04 10° 102° (ESE) 1,943 ? 20.2°
Sets 10:00:16 0° 98° (E) 2,792 ? 20.4°
